Home   Weather   Hollabrunn   Past weeks

Flag for Austria Past Weather in Hollabrunn, Lower Austria, Austria — Yesterday and Last 2 Weeks

Now
64 °F

Mild.


Feels Like: 64 °F
Forecast: 60 / 77 °F
Wind: 5 mph from West

Location: Retz

Current Time: Jul 27, 2017 at 10:51:30 pm

Latest Report: Jul 27, 2017 at 10:00 pm


Visibility: N/A

Pressure: 29.82 "Hg

Humidity: 80%

Dew Point: 58 °F

Location of HollabrunnLocation

Past Weather in Hollabrunn — Graph

°F

Hollabrunn Temperature Yesterday

Maximum temperature yesterday: 69 °F (at 4:00 pm)
Minimum temperature yesterday: 52 °F (at 6:00 am)
Average temperature yesterday: 60 °F

High & Low Weather Summary for the Past Weeks

 TemperatureHumidityPressure
High89 °F (Jul 20, 3:00 pm)99% (Jul 21, 3:00 am)30.24 "Hg (Jul 21, 3:00 am)
Low52 °F (Jul 26, 6:00 am)27% (Jul 16, 5:00 pm)29.59 "Hg (Jul 26, 1:00 pm)
Average68 °F64%29.93 "Hg
* Reported Jul 12 9:00 pm — Jul 27 9:00 pm, Hollabrunn. Weather by CustomWeather, © 2017

Note: Actual official high and low records may vary slightly from our data, if they occured in-between our weather recording intervals... More about our weather records

Advertising

Hollabrunn Weather History for the Previous 24 Hours

Scroll right to see more
 ConditionsComfort  
Time TempWeatherWind HumidityBarometerVisibility
9:00 pm
Thu, Jul 27
64 °FMild.2 mph87%29.82 "HgN/A
8:00 pm64 °FOvercast.1 mph90%29.80 "Hg11 mi
7:00 pm65 °FMild.3 mph87%29.80 "HgN/A
6:00 pm65 °FMild.3 mph78%29.80 "HgN/A
5:00 pm67 °FMild.3 mph74%29.80 "HgN/A
4:00 pm65 °FPassing clouds.2 mph80%29.80 "Hg1 mi
3:00 pm64 °FMild.3 mph84%29.81 "HgN/A
2:00 pm62 °FLight rain. Overcast.3 mph87%29.82 "Hg11 mi
1:00 pm62 °FCool.6 mph86%29.81 "HgN/A
12:00 pm61 °FSprinkles. Cloudy.6 mph89%29.82 "HgN/A
11:00 am60 °FCool.6 mph92%29.82 "HgN/A
10:00 am59 °FFog.6 mph92%29.81 "HgN/A
9:00 am58 °FFog.6 mph93%29.80 "HgN/A
8:00 am58 °FLight rain. Overcast.6 mph92%29.78 "Hg5 mi
7:00 am57 °FLight rain. Overcast.6 mph92%29.77 "Hg4 mi
6:00 am57 °FFog.7 mph92%29.76 "HgN/A
5:00 am57 °FCool.8 mph91%29.75 "HgN/A
4:00 am57 °FCool.8 mph91%29.74 "HgN/A
3:00 am57 °FCool.8 mph88%29.74 "HgN/A
2:00 am58 °FCool.10 mph84%29.73 "HgN/A
1:00 am58 °FCool.10 mph87%29.72 "HgN/A
12:00 am59 °FFog.9 mph89%29.71 "HgN/A
11:00 pm
Wed, Jul 26
61 °FCool.6 mph86%29.70 "HgN/A
10:00 pm61 °FCool.8 mph86%29.67 "HgN/A
Weather by CustomWeather, © 2017

See weather overviewHow to use our weather pages